W2IRT Weather Reports


Display with metric or nautical units.
time (UTC)temp
F
wind
direction
speed
MPH
gust
MPH
rain 1hr
in
rain 24hr
in
rain mn
in
humidity
%
barometer
mb
20260505193015 84 202 3.0 10.0 0.00 0.00 0.00 29 1006.9
20260505192516 84 202 3.0 16.0 0.00 0.00 0.00 29 1007.2
20260505192031 84 202 6.0 15.0 0.00 0.00 0.00 27 1007.2
20260505191515 84 202 3.0 11.0 0.00 0.00 0.00 28 1007.2
20260505191016 84 202 4.0 10.0 0.00 0.00 0.00 29 1007.2
20260505190515 84 225 5.0 12.0 0.00 0.00 0.00 29 1007.3
20260505190015 84 225 3.0 10.0 0.00 0.00 0.00 29 1007.3
20260505185515 84 225 6.0 14.0 0.00 0.00 0.00 28 1007.4
20260505185015 84 202 3.0 10.0 0.00 0.00 0.00 28 1007.4
20260505184516 84 202 4.0 14.0 0.00 0.00 0.00 29 1007.6
20260505184015 84 225 5.0 12.0 0.00 0.00 0.00 29 1007.8
20260505183516 84 225 4.0 14.0 0.00 0.00 0.00 28 1007.9
20260505183015 84 202 5.0 13.0 0.00 0.00 0.00 30 1007.8
20260505182515 84 202 5.0 10.0 0.00 0.00 0.00 31 1007.8
20260505182015 84 225 4.0 11.0 0.00 0.00 0.00 31 1007.8
20260505181515 84 202 4.0 15.0 0.00 0.00 0.00 31 1007.8
20260505181015 84 202 4.0 14.0 0.00 0.00 0.00 30 1008.0
20260505180515 84 202 5.0 10.0 0.00 0.00 0.00 33 1007.9
20260505180015 84 225 4.0 10.0 0.00 0.00 0.00 32 1007.9
20260505175515 84 225 5.0 9.0 0.00 0.00 0.00 33 1008.0
20260505175015 84 225 6.0 17.0 0.00 0.00 0.00 32 1008.1
20260505174516 84 225 7.0 17.0 0.00 0.00 0.00 31 1008.1
20260505174015 84 225 3.0 10.0 0.00 0.00 0.00 32 1008.2
20260505173515 83 225 4.0 10.0 0.00 0.00 0.00 34 1008.2
20260505173015 83 202 6.0 13.0 0.00 0.00 0.00 32 1008.3
20260505172515 83 225 5.0 13.0 0.00 0.00 0.00 34 1008.4
20260505172015 83 202 5.0 10.0 0.00 0.00 0.00 33 1008.5
20260505171515 83 202 3.0 8.0 0.00 0.00 0.00 35 1008.6
20260505171015 83 225 4.0 12.0 0.00 0.00 0.00 34 1008.6
20260505170515 83 225 2.0 9.0 0.00 0.00 0.00 36 1008.6
20260505170015 83 225 4.0 9.0 0.00 0.00 0.00 35 1008.6
20260505165515 83 202 3.0 8.0 0.00 0.00 0.00 35 1008.7
20260505165015 82 247 3.0 8.0 0.00 0.00 0.00 37 1008.8
20260505164515 82 0.0 3.0 0.00 0.00 0.00 37 1008.9
20260505164015 82 225 2.0 9.0 0.00 0.00 0.00 39 1008.9
20260505163515 81 225 1.0 5.0 0.00 0.00 0.00 38 1009.0
20260505163015 80 225 1.0 5.0 0.00 0.00 0.00 38 1009.0
20260505162515 80 202 3.0 8.0 0.00 0.00 0.00 40 1009.2
20260505162015 79 225 2.0 12.0 0.00 0.00 0.00 39 1009.2
20260505161531 79 225 1.0 7.0 0.00 0.00 0.00 41 1009.2
20260505161015 79 225 2.0 7.0 0.00 0.00 0.00 41 1009.3
20260505160515 78 225 3.0 9.0 0.00 0.00 0.00 42 1009.4
20260505153015 76 0.0 4.0 0.00 0.00 0.00 45 1009.7
20260505152517 76 225 2.0 7.0 0.00 0.00 0.00 45 1009.9
20260505152017 76 225 2.0 7.0 0.00 0.00 0.00 45 1010.1
20260505151517 76 225 2.0 9.0 0.00 0.00 0.00 44 1010.0
20260505151017 75 225 2.0 7.0 0.00 0.00 0.00 45 1010.0
20260505150517 75 225 1.0 5.0 0.00 0.00 0.00 45 1009.9
20260505140517 71 225 3.0 6.0 0.00 0.00 0.00 53 1010.5
20260505125016 65 225 3.0 6.0 0.00 0.00 0.00 63 1010.1
20260505124516 65 225 1.0 6.0 0.00 0.00 0.00 64 1010.0
20260505124016 65 225 1.0 3.0 0.00 0.00 0.00 66 1009.9
20260505123517 64 225 1.0 4.0 0.00 0.00 0.00 66 1010.0
20260505123017 64 0.0 3.0 0.00 0.00 0.00 66 1010.1
20260505122516 64 0.0 3.0 0.00 0.00 0.00 68 1010.1
20260505122016 63 0.0 0.0 0.00 0.00 0.00 69 1010.2
20260505121516 63 0.0 0.0 0.00 0.00 0.00 70 1010.3
20260505121016 62 0.0 3.0 0.00 0.00 0.00 70 1010.4
20260505120516 62 225 1.0 3.0 0.00 0.00 0.00 70 1010.4
20260505120016 62 225 1.0 5.0 0.00 0.00 0.00 70 1010.4
20260505115516 61 0.0 1.0 0.00 0.00 0.00 72 1010.4
20260505115016 60 0.0 0.0 0.00 0.00 0.00 75 1010.4
20260505114516 60 0.0 0.0 0.00 0.00 0.00 75 1010.3
20260505114016 60 0.0 1.0 0.00 0.00 0.00 76 1010.3
20260505113517 59 0.0 0.0 0.00 0.00 0.00 76 1010.2
20260505113016 59 0.0 0.0 0.00 0.00 0.00 77 1010.3
20260505112516 59 0.0 0.0 0.00 0.00 0.00 77 1010.2
20260505112016 59 0.0 0.0 0.00 0.00 0.00 77 1010.3
20260505111516 59 0.0 0.0 0.00 0.00 0.00 77 1010.3
20260505111016 58 0.0 0.0 0.00 0.00 0.00 77 1010.0
20260505110516 59 0.0 0.0 0.00 0.00 0.00 77 1010.1
20260505102016 58 0.0 0.0 0.00 0.00 0.00 69 1010.3
20260505101516 58 0.0 0.0 0.00 0.00 0.00 69 1010.3
20260505101016 58 0.0 0.0 0.00 0.00 0.00 68 1010.1
20260505100532 59 0.0 0.0 0.00 0.00 0.00 68 1010.0
20260505100016 59 0.0 1.0 0.00 0.00 0.00 68 1009.9
20260505095516 59 202 1.0 4.0 0.00 0.00 0.00 68 1009.9
20260505095016 59 0.0 5.0 0.00 0.00 0.00 68 1009.9
20260505094516 59 0.0 3.0 0.00 0.00 0.00 68 1009.7
20260505094016 59 0.0 0.0 0.00 0.00 0.00 68 1009.6
20260505093516 59 0.0 3.0 0.00 0.00 0.00 68 1009.5
20260505093016 59 0.0 2.0 0.00 0.00 0.00 68 1009.6
20260505092516 59 0.0 0.0 0.00 0.00 0.00 68 1009.4
20260505092016 59 0.0 0.0 0.00 0.00 0.00 68 1009.4
20260505091516 59 0.0 0.0 0.00 0.00 0.00 67 1009.4
20260505091016 59 0.0 0.0 0.00 0.00 0.00 67 1009.4
20260505090516 59 0.0 0.0 0.00 0.00 0.00 67 1009.4
20260505090016 59 0.0 0.0 0.00 0.00 0.00 67 1009.4
20260505085516 59 0.0 0.0 0.00 0.00 0.00 67 1009.3
20260505085016 59 0.0 0.0 0.00 0.00 0.00 67 1009.3
20260505084516 59 0.0 0.0 0.00 0.00 0.00 67 1009.2
20260505084016 59 0.0 0.0 0.00 0.00 0.00 67 1009.3
20260505083516 59 0.0 0.0 0.00 0.00 0.00 67 1009.4
20260505083016 59 0.0 0.0 0.00 0.00 0.00 67 1009.4
20260505082516 59 0.0 0.0 0.00 0.00 0.00 67 1009.4
20260505082016 59 0.0 0.0 0.00 0.00 0.00 67 1009.3
20260505081516 59 0.0 0.0 0.00 0.00 0.00 67 1009.3
20260505081016 59 0.0 0.0 0.00 0.00 0.00 67 1009.4
20260505080516 59 0.0 0.0 0.00 0.00 0.00 67 1009.4
20260505080016 59 0.0 0.0 0.00 0.00 0.00 67 1009.4
20260505075516 59 0.0 0.0 0.00 0.00 0.00 67 1009.3
20260505075016 59 0.0 0.0 0.00 0.00 0.00 66 1009.4
20260505074516 59 0.0 0.0 0.00 0.00 0.00 66 1009.3
20260505074016 59 0.0 0.0 0.00 0.00 0.00 66 1009.3
20260505073516 59 0.0 0.0 0.00 0.00 0.00 66 1009.3
20260505073016 59 0.0 0.0 0.00 0.00 0.00 66 1009.4
20260505072516 59 0.0 0.0 0.00 0.00 0.00 66 1009.3
20260505072016 59 0.0 0.0 0.00 0.00 0.00 65 1009.3
20260505071516 59 0.0 0.0 0.00 0.00 0.00 65 1009.4
20260505071016 59 0.0 0.0 0.00 0.00 0.00 65 1009.4
20260505070516 59 0.0 0.0 0.00 0.00 0.00 65 1009.4
20260505070031 59 0.0 0.0 0.00 0.00 0.00 64 1009.3
20260505065516 60 0.0 0.0 0.00 0.00 0.00 64 1009.3
20260505065016 60 0.0 0.0 0.00 0.00 0.00 64 1009.4
20260505064516 60 0.0 2.0 0.00 0.00 0.00 63 1009.3
20260505064016 60 0.0 3.0 0.00 0.00 0.00 63 1009.4
20260505063516 60 0.0 0.0 0.00 0.00 0.00 63 1009.4
20260505063016 60 0.0 2.0 0.00 0.00 0.00 62 1009.4
20260505062516 60 0.0 0.0 0.00 0.00 0.00 62 1009.5
20260505062016 60 0.0 0.0 0.00 0.00 0.00 62 1009.5
20260505061515 61 0.0 0.0 0.00 0.00 0.00 61 1009.5
20260505061016 61 0.0 0.0 0.00 0.00 0.00 61 1009.5
20260505060516 61 0.0 0.0 0.00 0.00 0.00 60 1009.5
20260505060015 61 0.0 0.0 0.00 0.00 0.00 60 1009.5
20260505055515 61 0.0 0.0 0.00 0.00 0.00 60 1009.5
20260505055015 61 0.0 0.0 0.00 0.00 0.00 60 1009.6
20260505054516 61 0.0 0.0 0.00 0.00 0.00 59 1009.6
20260505054015 61 0.0 0.0 0.00 0.00 0.00 59 1009.6
20260505053516 61 0.0 2.0 0.00 0.00 0.00 58 1009.7
20260505053015 61 0.0 3.0 0.00 0.00 0.00 58 1009.8
20260505052515 61 0.0 0.0 0.00 0.00 0.00 58 1009.7
20260505052016 61 0.0 0.0 0.00 0.00 0.00 57 1009.7
20260505051515 62 0.0 0.0 0.00 0.00 0.00 57 1009.8
20260505051016 62 0.0 0.0 0.00 0.00 0.00 56 1009.8
20260505050515 62 0.0 2.0 0.00 0.00 0.00 56 1009.8
20260505041515 64 225 1.0 4.0 0.00 0.00 0.00 51 1009.9
20260505041015 64 202 1.0 5.0 0.00 0.00 0.00 51 1009.9
20260505040515 64 0.0 3.0 0.00 0.00 0.00 50 1009.8
20260505040015 64 202 1.0 3.0 0.00 0.00 0.00 49 1009.8
20260505035531 64 0.0 4.0 0.00 0.00 0.00 49 1009.8
20260505035016 64 0.0 4.0 0.00 0.00 0.00 48 1009.8
20260505034516 64 0.0 3.0 0.00 0.00 0.00 48 1009.8
20260505034016 64 0.0 3.0 0.00 0.00 0.00 47 1009.9
20260505033516 64 0.0 2.0 0.00 0.00 0.00 47 1009.9
20260505033016 64 0.0 5.0 0.00 0.00 0.00 47 1009.9
20260505032516 64 0.0 3.0 0.00 0.00 0.00 47 1009.9
20260505032016 65 0.0 3.0 0.00 0.00 0.00 47 1009.9
20260505031516 65 0.0 1.0 0.00 0.00 0.00 47 1009.9
20260505031016 65 0.0 3.0 0.00 0.00 0.00 46 1009.9
20260505030516 65 0.0 4.0 0.00 0.00 0.00 46 1010.0
20260505030016 65 0.0 4.0 0.00 0.00 0.00 45 1010.0
20260505025516 65 0.0 0.0 0.00 0.00 0.00 45 1010.0
20260505025015 65 0.0 2.0 0.00 0.00 0.00 45 1010.0
20260505024516 66 0.0 4.0 0.00 0.00 0.00 44 1010.1
20260505024016 66 0.0 3.0 0.00 0.00 0.00 43 1010.0
20260505023516 66 0.0 2.0 0.00 0.00 0.00 42 1010.0
20260505023016 66 0.0 4.0 0.00 0.00 0.00 42 1010.0
20260505022516 66 0.0 2.0 0.00 0.00 0.00 41 1010.1
20260505022015 66 0.0 3.0 0.00 0.00 0.00 40 1010.0
20260505021516 67 0.0 2.0 0.00 0.00 0.00 39 1010.1
20260505021016 67 0.0 2.0 0.00 0.00 0.00 39 1010.1
20260505020516 67 0.0 0.0 0.00 0.00 0.00 39 1010.1
20260505020016 67 0.0 0.0 0.00 0.00 0.00 39 1010.1
20260505015516 67 0.0 0.0 0.00 0.00 0.00 39 1009.9
20260505015016 67 0.0 0.0 0.00 0.00 0.00 38 1009.9
20260505014516 67 0.0 0.0 0.00 0.00 0.00 39 1009.9
20260505014015 67 0.0 0.0 0.00 0.00 0.00 39 1009.8
20260505013516 67 0.0 0.0 0.00 0.00 0.00 39 1009.8
20260505013016 67 0.0 0.0 0.00 0.00 0.00 38 1009.8
20260505012516 67 0.0 0.0 0.00 0.00 0.00 39 1009.8
20260505012016 67 0.0 0.0 0.00 0.00 0.00 38 1009.8
20260505011516 67 0.0 0.0 0.00 0.00 0.00 38 1009.7
20260505011016 67 0.0 0.0 0.00 0.00 0.00 38 1009.6
20260505010516 67 0.0 0.0 0.00 0.00 0.00 38 1009.5
20260505010015 67 0.0 0.0 0.00 0.00 0.00 38 1009.5
20260505005515 67 0.0 0.0 0.00 0.00 0.00 38 1009.4
20260505005031 68 0.0 0.0 0.00 0.00 0.00 38 1009.4
20260505004516 68 0.0 0.0 0.00 0.00 0.00 37 1009.3
20260505004016 68 0.0 0.0 0.00 0.00 0.00 37 1009.2
20260505003516 68 0.0 0.0 0.00 0.00 0.00 37 1009.2
20260505003015 69 0.0 0.0 0.00 0.00 0.00 36 1009.2
20260505002516 69 0.0 0.0 0.00 0.00 0.00 35 1009.1
20260505002015 69 0.0 0.0 0.00 0.00 0.00 35 1009.0
20260505001516 70 0.0 2.0 0.00 0.00 0.00 35 1009.0
20260505001015 70 0.0 4.0 0.00 0.00 0.00 34 1008.9
20260505000515 70 0.0 5.0 0.00 0.00 0.00 33 1008.7
20260505000015 70 225 1.0 4.0 0.00 0.00 0.00 33 1008.7
20260504235515 71 225 1.0 5.0 0.00 0.00 0.00 33 1008.6
20260504235016 71 202 1.0 4.0 0.00 0.00 0.00 33 1008.5
20260504234515 71 225 1.0 3.0 0.00 0.00 0.00 33 1008.5
20260504234016 71 225 3.0 8.0 0.00 0.00 0.00 32 1008.4
20260504233515 72 225 1.0 5.0 0.00 0.00 0.00 33 1008.3
20260504233015 72 225 2.0 7.0 0.00 0.00 0.00 32 1008.2
20260504232515 72 225 1.0 5.0 0.00 0.00 0.00 32 1008.2
20260504232015 72 225 2.0 5.0 0.00 0.00 0.00 32 1008.1
20260504231515 72 225 1.0 4.0 0.00 0.00 0.00 31 1008.1
20260504231015 72 225 1.0 5.0 0.00 0.00 0.00 31 1008.0
20260504230515 73 0.0 2.0 0.00 0.00 0.00 31 1008.0
20260504230015 73 225 3.0 8.0 0.00 0.00 0.00 31 1007.9
20260504225516 73 225 3.0 13.0 0.00 0.00 0.00 30 1008.0
20260504225015 73 202 2.0 8.0 0.00 0.00 0.00 31 1007.9
20260504224515 73 225 1.0 3.0 0.00 0.00 0.00 31 1008.0
20260504224015 73 225 4.0 11.0 0.00 0.00 0.00 30 1008.0
20260504223515 73 225 4.0 8.0 0.00 0.00 0.00 29 1008.0
20260504223015 73 225 2.0 8.0 0.00 0.00 0.00 30 1008.1
20260504222515 74 225 5.0 9.0 0.00 0.00 0.00 29 1008.1
20260504222015 74 225 2.0 8.0 0.00 0.00 0.00 29 1008.0
20260504221515 74 225 3.0 9.0 0.00 0.00 0.00 30 1008.1
20260504221015 74 225 3.0 7.0 0.00 0.00 0.00 29 1008.2
20260504220515 74 202 2.0 7.0 0.00 0.00 0.00 30 1008.1
20260504220015 74 225 2.0 7.0 0.00 0.00 0.00 30 1008.2
20260504215515 74 225 2.0 7.0 0.00 0.00 0.00 29 1008.2
20260504215015 74 225 3.0 8.0 0.00 0.00 0.00 29 1008.4
20260504214531 74 225 3.0 9.0 0.00 0.00 0.00 29 1008.3
20260504214015 74 225 5.0 16.0 0.00 0.00 0.00 29 1008.5
20260504213515 74 202 2.0 7.0 0.00 0.00 0.00 30 1008.4
20260504213015 74 225 2.0 6.0 0.00 0.00 0.00 29 1008.5
20260504212515 74 225 3.0 7.0 0.00 0.00 0.00 28 1008.5
20260504212015 74 225 4.0 8.0 0.00 0.00 0.00 28 1008.5
20260504211515 74 225 5.0 13.0 0.00 0.00 0.00 28 1008.6
20260504211015 74 225 3.0 9.0 0.00 0.00 0.00 28 1008.6
20260504210515 74 225 3.0 10.0 0.00 0.00 0.00 28 1008.6
20260504210015 74 202 4.0 12.0 0.00 0.00 0.00 27 1008.4
20260504205515 74 225 3.0 8.0 0.00 0.00 0.00 28 1008.5
20260504205015 74 225 2.0 7.0 0.00 0.00 0.00 29 1008.5
20260504204515 74 225 4.0 11.0 0.00 0.00 0.00 27 1008.6
20260504204015 74 0 4.0 12.0 0.00 0.00 0.00 27 1008.5
20260504203515 74 225 3.0 7.0 0.00 0.00 0.00 28 1008.5
20260504203015 75 225 4.0 9.0 0.00 0.00 0.00 28 1008.5
20260504202515 75 225 4.0 9.0 0.00 0.00 0.00 28 1008.6
20260504202015 74 202 6.0 14.0 0.00 0.00 0.00 28 1008.7
20260504201515 74 225 2.0 8.0 0.00 0.00 0.00 29 1008.6
20260504201017 74 225 2.0 10.0 0.00 0.00 0.00 29 1008.7
20260504200517 74 225 1.0 4.0 0.00 0.00 0.00 28 1008.6
20260504200017 74 225 2.0 7.0 0.00 0.00 0.00 29 1008.7
20260504195517 74 225 3.0 8.0 0.00 0.00 0.00 28 1008.8
20260504195017 74 225 4.0 8.0 0.00 0.00 0.00 27 1009.0
20260504194517 74 225 2.0 9.0 0.00 0.00 0.00 28 1008.9
20260504194017 74 225 3.0 8.0 0.00 0.00 0.00 28 1009.0
20260504193517 74 225 3.0 8.0 0.00 0.00 0.00 27 1008.9